Regional Weather Roundup
Issued by NWS

Home | Current Version | Previous Version | Graphics & Text | Print | Product List | Glossary On
Versions: 1 2 3 4 5 6 7 8 9 10 11 12 13 14 15 16 17 18 19 20 21 22 23 24 25 26 27 28 29 30 31 32 33 34 35 36 37 38 39 40 41 42 43 44 45 46 47 48 49 50
000
ASUS43 KOAX 290110
RWRNE

WEATHER ROUNDUP FOR NEBRASKA
NATIONAL WEATHER SERVICE OMAHA NE
800 PM CDT THU MAY 28 2015

NOTES: SATELLITE DATA IS BEING USED TO AUGMENT CLOUD COVER ABOVE
       12000 FEET.
       "FAIR" INDICATES FEW OR NO CLOUDS BELOW 12,000 FEET WITH NO
       SIGNIFICANT WEATHER AND/OR OBSTRUCTIONS TO VISIBILITY.

  * THESE STATIONS DO NOT REPORT WEATHER SUCH AS RAIN...SNOW OR FOG.

NEZ001>004-019>022-054>056-290200-
NEBRASKA PANHANDLE

CITY           SKY/WX    TMP DP  RH WIND       PRES   REMARKS
SCOTTSBLUFF    CLOUDY    68  54  60 NE14      29.92R
ALLIANCE       CLOUDY    63  54  72 NE9       29.92S
CHADRON        TSTM      61  49  64 N14G31    29.97R
KIMBALL          N/A    N/A N/A N/A MISG        N/A
SIDNEY         CLOUDY    57  54  89 CALM      29.94F
$$

NEZ057>060-069>072-079>082-290200-
SOUTHWEST NEBRASKA

CITY           SKY/WX    TMP DP  RH WIND       PRES   REMARKS
NORTH PLATTE   TSTM      60  53  77 W25G35    29.94R
IMPERIAL       LGT RAIN  57  53  86 W7        30.01R
LEXINGTON      CLOUDY    74  60  61 S13       29.90R
MCCOOK         CLOUDY    71  59  65 S17       29.94R
OGALLALA       CLOUDY    58  55  88 E6        29.94R
$$

NEZ005>010-023>029-035>040-094-290200-
NORTH CENTRAL NEBRASKA

CITY           SKY/WX    TMP DP  RH WIND       PRES   REMARKS
VALENTINE      CLOUDY    67  56  67 SW3       29.86F
AINSWORTH      PTSUNNY   67  62  82 NW5       29.90R
BROKEN BOW     CLOUDY    73  60  63 S9        29.90R
O`NEILL        CLOUDY    75  61  62 SW6       29.88R
ORD            MOCLDY    73  59  61 SE6       29.87R
THEDFORD       CLOUDY    73  59  62 W7        29.90R
$$

NEZ041-046>049-061>064-073>077-083>087-290200-
SOUTH CENTRAL NEBRASKA

CITY           SKY/WX    TMP DP  RH WIND       PRES   REMARKS
GRAND ISLAND   CLOUDY    75  58  55 S12       29.88R
AURORA         CLOUDY    75  58  55 S9        29.88S
HASTINGS       CLOUDY    73  59  61 S7        29.90R
HEBRON         MOCLDY    74  60  61 S5        29.92R
HOLDREGE       CLOUDY    73  59  62 S9        29.92R
KEARNEY *      CLOUDY    73  61  64 S13       29.90R
YORK           MOCLDY    75  63  64 S15       29.89R
$$

NEZ011>018-030>034-042>045-290200-
NORTHEAST NEBRASKA

CITY           SKY/WX    TMP DP  RH WIND       PRES   REMARKS
NORFOLK        CLEAR     73  64  73 SE12      29.87S
ALBION         MOCLDY    75  58  55 S7        29.87S
BLAIR          MOCLDY    70  63  78 SE9G16    29.91F
COLUMBUS *     MOCLDY    73  63  68 SE12      29.89R
FREMONT        MOCLDY    72  64  76 SE7       29.90F
TEKAMAH        MOCLDY    72  64  78 SE15      29.88F
WAYNE          PTCLDY    71  64  78 SE15      29.89R
$$

NEZ050>053-065>068-078-088>093-290200-
SOUTHEAST NEBRASKA

CITY           SKY/WX    TMP DP  RH WIND       PRES   REMARKS
LINCOLN        PTCLDY    73  65  75 SE15      29.90S
OMAHA EPPLEY   MOCLDY    71  63  75 SE14      29.91F
BEATRICE       PTCLDY    73  65  77 S8        29.91R
FALLS CITY     PTCLDY    71  62  73 S8        29.93S
NEBRASKA CITY  CLEAR     70  62  75 SE9       29.94S
PLATTSMOUTH    PTCLDY    69  63  81 SE9       29.92F
$$

NEZ044-045-051>053-067-290200-
OMAHA AREA

CITY           SKY/WX    TMP DP  RH WIND       PRES   REMARKS
OMAHA EPPLEY   MOCLDY    71  63  75 SE14      29.91F
BLAIR          MOCLDY    70  63  78 SE9G16    29.91F
FREMONT        MOCLDY    72  64  76 SE7       29.90F
MILLARD        MOCLDY    71  65  80 SE9       29.90F
OFFUTT AFB     MOCLDY    70  64  80 SE16      29.90F
PLATTSMOUTH    PTCLDY    69  63  81 SE9       29.92F
WAHOO          FAIR      72  65  78 SE10      29.90R
$$



USA.gov is the U.S. government's official web portal to all federal, state and local government web resources and services.